[[{"header":{"parameterUnit":"m.s-1","parameterCategory":1,"la1":30.2991,"la2":30.254,"lo1":-89.0895,"lo2":-89.0444,"dy":0.0017,"dx":0.0017,"nx":28,"ny":28,"refTime":"2024-12-10T09:00:00:Z","depth":0,"parameterNumber":2,"parameterNumberName":"U-component_of_WINDS"},"data":[0,0,0,0,0,0,0,0,0,0,0,0,0,0,0,0,0,0,0,0,0,0,0,0,0,0,0,0,0,0,0,0,0,0,0,0,0,0,0,0,0,0,0,0,0,0,0,0,0,0,0,0,0,0,0,0,0,0,1.7646,1.7646,0,1.7597,1.7596,1.7596,1.759,1.7591,1.7591,1.7592,1.7541,1.754,1.7538,0,0,0,0,0,0,0,0,0,0,0,0,0,1.774,1.7738,1.7646,1.7646,1.7645,1.7597,1.7596,1.7596,1.759,1.7591,1.7591,1.7592,1.7542,1.754,1.7538,0,0,0,0,0,0,0,0,0,0,0,0,0,1.7696,1.7738,1.7646,1.7636,1.7635,1.7597,1.7596,1.7595,1.759,1.7591,1.7592,1.7592,1.7543,1.754,1.7537,1.7506,0,0,1.7529,1.7528,0,0,0,0,0,0,0,0,1.7698,1.7692,1.7639,1.7637,1.7635,1.76,1.7611,1.7565,1.759,1.7607,1.7592,1.7593,1.7561,1.7556,1.7546,1.7503,1.7501,1.7529,1.7527,1.7526,1.7525,0,0,0,0,0,0,0,1.7701,1.7694,1.7627,1.7638,1.7636,1.7636,1.7631,1.7602,1.758,1.7606,1.7605,1.7599,1.756,1.7548,1.7544,1.7501,1.7529,1.7527,1.7525,1.7524,1.7436,1.7436,0,0,0,0,0,0,1.7706,1.7697,1.7628,1.7625,1.7669,1.7634,1.7628,1.7611,1.7581,1.7577,1.7599,1.7599,1.7552,1.7547,1.7543,1.7507,1.7526,1.7524,1.7522,1.7437,1.7436,1.7435,0,0,0,0,0,0,1.7708,1.77,1.763,1.7661,1.7652,1.7631,1.7613,1.761,1.7598,1.7575,1.7572,1.7591,1.7553,1.7546,1.7516,1.7505,1.7522,1.752,1.7438,1.7437,1.7436,1.7432,0,0,0,0,0,0,1.7711,1.77,1.7687,1.7661,1.7651,1.7603,1.7612,1.7608,1.7593,1.7593,1.7567,1.7563,1.7553,1.752,1.7514,1.7501,1.7518,1.7439,1.7437,1.7436,1.7433,1.7431,1.743,0,0,0,0,0,1.7714,1.7686,1.7686,1.7678,1.7633,1.7602,1.7597,1.7585,1.7592,1.7579,1.7566,1.7564,1.7508,1.7517,1.751,1.7496,1.7439,1.7438,1.7436,1.7434,1.7432,1.743,0,0,0,0,0,0,1.771,1.7683,1.7682,1.7645,1.7626,1.7601,1.7584,1.7582,1.7561,1.7562,1.755,1.7544,1.7515,1.7503,1.7514,1.7467,1.7474,1.7471,1.7476,1.7473,1.7471,1.7474,1.7516,0,0,0,0,0,1.7705,1.7682,1.766,1.7629,1.762,1.7604,1.7591,1.7584,1.7564,1.7556,1.754,1.7522,1.7501,1.7486,1.7465,1.7433,1.7429,1.742,1.7418,1.7417,1.7414,1.74,1.7397,1.743,1.743,1.743,0,0,1.7693,1.7676,1.7662,1.7628,1.7613,1.7591,1.7597,1.7573,1.7557,1.7552,1.7524,1.7512,1.7491,1.7461,1.7447,1.745,1.7405,1.7415,1.7414,1.7412,1.7398,1.7395,1.7393,1.7429,1.7429,1.7429,0,0,1.7662,1.7646,1.7621,1.7607,1.7585,1.7575,1.757,1.7547,1.7539,1.7511,1.7508,1.7491,1.7453,1.7439,1.7427,1.7399,1.7397,1.7392,1.7381,1.7368,1.7366,1.7364,1.7355,1.7352,1.739,1.739,1.739,0,1.7651,1.7617,1.7608,1.7585,1.7572,1.757,1.7546,1.7533,1.7505,1.7497,1.7501,1.7457,1.7442,1.7411,1.7405,1.7394,1.739,1.7394,1.7367,1.7364,1.7362,1.7354,1.7351,1.7389,1.7389,1.7389,1.7389,0,1.7606,1.7583,1.7566,1.7541,1.7527,1.7503,1.7493,1.7479,1.7476,1.7467,1.7441,1.7424,1.7402,1.7394,1.7389,1.7364,1.7367,1.7369,1.7376,1.7359,1.7352,1.7348,1.7389,1.7389,1.7389,1.7389,0,0,1.7565,1.7541,1.7535,1.7526,1.7504,1.7487,1.7466,1.7445,1.7435,1.7418,1.7401,1.7373,1.7377,1.7363,1.7358,1.7347,1.7329,1.7351,1.7351,1.7349,1.7303,1.7302,1.7298,1.7329,1.7328,1.7328,1.7306,0,1.7533,1.7494,1.7489,1.7456,1.7437,1.7437,1.742,1.7406,1.7399,1.7383,1.7375,1.7356,1.7361,1.7354,1.7343,1.7333,1.732,1.7335,1.7315,1.7314,1.7319,1.7294,1.7291,1.727,1.7302,1.7302,1.7301,0,1.7488,1.7472,1.7438,1.7424,1.7416,1.7399,1.7383,1.7367,1.7354,1.735,1.7338,1.7336,1.7317,1.7327,1.7302,1.7312,1.7305,1.73,1.7299,1.7296,1.7306,1.7291,1.7263,1.726,1.7296,1.7297,1.7297,0,1.7465,1.7435,1.7411,1.7403,1.7386,1.7376,1.7368,1.7355,1.7345,1.7331,1.7325,1.7309,1.73,1.7288,1.7283,1.729,1.726,1.7268,1.7258,1.7258,1.725,1.725,1.7221,1.7245,1.7245,1.7245,1.7245,0,1.7429,1.7408,1.7401,1.7387,1.7365,1.7361,1.734,1.7333,1.7323,1.7309,1.7309,1.7296,1.729,1.7277,1.7273,1.7255,1.7251,1.7248,1.7247,1.7248,1.7249,1.7242,1.7243,1.7244,1.7244,1.7244,1.7244,0,1.7398,1.7392,1.7367,1.7355,1.7352,1.7337,1.7327,1.7314,1.731,1.7292,1.7288,1.728,1.7265,1.726,1.7241,1.7239,1.7219,1.7219,1.7223,1.7223,1.7213,1.7215,1.7178,1.7174,1.7201,1.7201,1.72,0,1.7375,1.7359,1.7347,1.7338,1.7331,1.7316,1.7307,1.7304,1.7294,1.7281,1.7271,1.7257,1.7245,1.7222,1.7215,1.7203,1.7203,1.7192,1.7201,1.7204,1.7204,1.7205,1.7205,1.7189,1.7189,1.7189,1.7188,0,1.7335,1.7335,1.7321,1.7309,1.7298,1.7287,1.7277,1.727,1.7267,1.7256,1.7242,1.7233,1.7217,1.7204,1.7192,1.7186,1.7187,1.7186,1.7183,1.7183,1.7187,1.7187,1.7219,1.7186,1.7187,1.7187,1.7187,1.7187,1.7308,1.7297,1.7288,1.7274,1.7267,1.7259,1.7248,1.7244,1.7232,1.7218,1.7218,1.7204,1.7196,1.718,1.7174,1.7164,1.7167,1.7162,1.7161,1.716,1.716,1.719,1.7161,1.7162,1.7162,1.7162,1.7162,0,1.7271,1.7266,1.7254,1.7242,1.7232,1.7237,1.7227,1.7219,1.7206,1.7199,1.7189,1.7175,1.7164,1.7158,1.7148,1.7141,1.7142,1.7138,1.7139,1.7138,1.7157,1.7161,1.7138,1.7138,1.7138,1.7138,1.7138,1.7138,1.725,1.7231,1.7231,1.7211,1.7207,1.7193,1.7188,1.7181,1.7176,1.7161,1.7152,1.7149,1.7144,1.7134,1.7125,1.7124,1.712,1.7117,1.7116,1.7134,1.7136,1.7138,1.7142,1.7116,1.7116,1.7098,1.7098,1.7098]},{"header":{"parameterUnit":"m.s-1","parameterCategory":1,"la1":30.2991,"la2":30.254,"lo1":-89.0895,"lo2":-89.0444,"dy":0.0017,"dx":0.0017,"nx":28,"ny":28,"refTime":"2024-12-10T09:00:00:Z","depth":0,"parameterNumber":3,"parameterNumberName":"V-component_of_WINDS"},"data":[0,0,0,0,0,0,0,0,0,0,0,0,0,0,0,0,0,0,0,0,0,0,0,0,0,0,0,0,0,0,0,0,0,0,0,0,0,0,0,0,0,0,0,0,0,0,0,0,0,0,0,0,0,0,0,0,0,0,2.3311,2.3317,0,2.3919,2.3926,2.3933,2.4035,2.403,2.4025,2.402,2.4655,2.4676,2.4698,0,0,0,0,0,0,0,0,0,0,0,0,0,2.2244,2.2263,2.331,2.3318,2.3325,2.3918,2.3927,2.3935,2.4036,2.403,2.4023,2.4017,2.4648,2.4674,2.47,0,0,0,0,0,0,0,0,0,0,0,0,0,2.2766,2.227,2.3309,2.3447,2.3465,2.3916,2.3927,2.3937,2.4037,2.403,2.4022,2.4014,2.4639,2.4671,2.4703,2.5063,0,0,2.4803,2.4817,0,0,0,0,0,0,0,0,2.2736,2.2805,2.3419,2.3438,2.346,2.3893,2.3784,2.4315,2.4039,2.3821,2.402,2.401,2.4409,2.446,2.4592,2.5093,2.512,2.4806,2.4826,2.484,2.4849,0,0,0,0,0,0,0,2.27,2.2779,2.3551,2.3428,2.3453,2.3482,2.3547,2.3885,2.4152,2.3839,2.3848,2.3918,2.4418,2.456,2.4607,2.5129,2.4805,2.4834,2.4855,2.4867,2.5959,2.5968,0,0,0,0,0,0,2.2637,2.2748,2.3532,2.357,2.3071,2.3507,2.358,2.3762,2.4148,2.4199,2.3924,2.392,2.4508,2.4569,2.463,2.5082,2.484,2.487,2.4889,2.595,2.5961,2.5971,0,0,0,0,0,0,2.2614,2.2706,2.3508,2.3162,2.3266,2.3534,2.3737,2.3778,2.392,2.4212,2.4261,2.4019,2.4504,2.4584,2.4955,2.5105,2.4885,2.4915,2.5939,2.5953,2.5966,2.5983,0,0,0,0,0,0,2.2583,2.2697,2.2835,2.3164,2.3284,2.382,2.3746,2.3796,2.3975,2.3976,2.4315,2.4364,2.4504,2.4905,2.4987,2.5146,2.4941,2.5927,2.5945,2.5962,2.5971,2.5996,2.6018,0,0,0,0,0,2.2545,2.2817,2.2841,2.2935,2.3461,2.3828,2.3897,2.405,2.3986,2.4129,2.4316,2.4353,2.5072,2.4942,2.5035,2.5206,2.5918,2.594,2.596,2.596,2.5991,2.6017,0,0,0,0,0,0,2.2505,2.2863,2.2894,2.328,2.3522,2.3844,2.403,2.4077,2.4346,2.4336,2.4517,2.4593,2.4955,2.5116,2.4965,2.5575,2.5491,2.5531,2.5459,2.5491,2.5514,2.5472,2.4968,0,0,0,0,0,2.2539,2.2803,2.3104,2.3416,2.3535,2.376,2.3926,2.4022,2.4282,2.4386,2.4601,2.4854,2.5138,2.5321,2.5598,2.599,2.6069,2.6153,2.6177,2.6195,2.6231,2.6455,2.6498,2.604,2.604,2.604,0,0,2.2617,2.2845,2.3003,2.3414,2.3613,2.3887,2.3847,2.4138,2.4345,2.4432,2.4796,2.496,2.5255,2.5639,2.5819,2.5785,2.6373,2.6222,2.6234,2.6262,2.6481,2.6524,2.6562,2.6055,2.6052,2.605,0,0,2.2901,2.3096,2.3381,2.3579,2.3879,2.4026,2.4093,2.4407,2.452,2.4886,2.4957,2.5205,2.5688,2.5897,2.6066,2.6422,2.6468,2.6506,2.6634,2.685,2.6886,2.6919,2.7053,2.7098,2.6539,2.6539,2.6539,0,2.2962,2.3375,2.3522,2.3811,2.3992,2.4075,2.4368,2.4553,2.4929,2.5054,2.5007,2.5616,2.582,2.6256,2.6342,2.6473,2.656,2.6474,2.6868,2.6902,2.6936,2.7066,2.7115,2.6543,2.6542,2.6542,2.6541,0,2.3438,2.3722,2.3916,2.4274,2.4475,2.4763,2.4957,2.5143,2.5219,2.5371,2.5744,2.599,2.6319,2.6427,2.6506,2.6875,2.6845,2.683,2.6751,2.698,2.7106,2.7156,2.6547,2.6546,2.6545,2.6544,0,0,2.3725,2.4154,2.4224,2.4388,2.4721,2.4947,2.5237,2.5555,2.5715,2.5968,2.6222,2.6625,2.6614,2.6805,2.6906,2.7094,2.7367,2.7058,2.7068,2.7114,2.7796,2.7812,2.7866,2.7394,2.7404,2.7412,2.7774,0,2.4055,2.4577,2.4716,2.5161,2.5428,2.5508,2.5763,2.5996,2.6144,2.6395,2.6559,2.6845,2.6804,2.6921,2.7109,2.7294,2.7508,2.7268,2.7639,2.765,2.7573,2.7931,2.795,2.828,2.7823,2.7831,2.7837,0,2.4513,2.4773,2.5244,2.5542,2.566,2.5886,2.619,2.6425,2.6691,2.6786,2.6996,2.7078,2.7389,2.7282,2.7715,2.7549,2.7707,2.7819,2.7836,2.7886,2.7765,2.7999,2.8388,2.8441,2.7914,2.7908,2.7903,0,2.4685,2.5152,2.5495,2.5631,2.5986,2.6144,2.63,2.6557,2.6739,2.7003,2.7124,2.7419,2.7585,2.7813,2.7975,2.7881,2.8395,2.8302,2.8489,2.8485,2.8604,2.8596,2.9033,2.8687,2.8686,2.8685,2.8684,0,2.5047,2.5334,2.5578,2.579,2.6114,2.6268,2.6586,2.6744,2.6972,2.7219,2.7302,2.7532,2.7726,2.7983,2.8109,2.8451,2.8523,2.8612,2.8645,2.8612,2.8601,2.8726,2.8711,2.8699,2.8696,2.8693,2.8691,0,2.53,2.5473,2.5854,2.6156,2.6238,2.6465,2.6725,2.6935,2.708,2.7392,2.7473,2.7706,2.8012,2.8191,2.8578,2.8663,2.9045,2.9062,2.8955,2.8972,2.9151,2.9135,2.9693,2.9777,2.9364,2.9368,2.9371,0,2.5525,2.5748,2.6071,2.6241,2.6398,2.6669,2.6854,2.7012,2.7202,2.7518,2.7692,2.8001,2.8259,2.8744,2.8949,2.9245,2.9277,2.9451,2.9323,2.9282,2.929,2.9279,2.9305,2.9477,2.948,2.9483,2.9486,0,2.5909,2.5983,2.6244,2.6536,2.6753,2.6991,2.7227,2.7361,2.7559,2.7768,2.808,2.8279,2.867,2.898,2.9291,2.9454,2.9507,2.9521,2.9583,2.9557,2.9489,2.9536,2.9026,2.9512,2.9509,2.9508,2.9506,2.9505,2.6164,2.6366,2.6625,2.6914,2.7106,2.7324,2.7537,2.7707,2.7968,2.8299,2.8375,2.8704,2.8963,2.9386,2.9555,2.9817,2.9789,2.9874,2.9898,2.992,2.9929,2.9436,2.9873,2.9872,2.9872,2.9872,2.9871,0,2.656,2.6728,2.6991,2.7318,2.7545,2.7563,2.7824,2.8015,2.8303,2.8537,2.8787,2.9145,2.9443,2.9667,2.9972,3.0139,3.017,3.0215,3.021,3.0248,2.9933,2.9854,3.0184,3.0184,3.0184,3.0184,3.0184,3.0184,2.6794,2.7139,2.7241,2.7683,2.7849,2.8171,2.8319,2.8522,2.871,2.9105,2.9352,2.9493,2.9725,3.0046,3.0321,3.0379,3.0492,3.0534,3.0597,3.0302,3.0269,3.0238,3.0165,3.0555,3.0555,3.0892,3.0895,3.0897]}]]